Tracking 19709 objects as of 21-Jun-2019
HD Live streaming from Space Station
objects crossing your sky now

FENGYUN 1C DEB

Track FENGYUN 1C DEB now!
10-day predictions


NORAD ID: 31773
Int'l Code: 1999-025CFY
Perigee: 722.3 km
Apogee: 827.1 km
Inclination: 99.0 °
Period: 100.2 minutes
Semi major axis: 7145 km
RCS: 0.0025 m2 (small)
Launch date: May 10, 1999
Source: People's Republic of China (PRC)
Launch site: Taiyaun Space Center, China (TSC)

Note: This is SATELLITE DEBRIS
aabbcc
Your satellite tracking list
Your tracking list is empty




NASA's NSSDC Master Catalog

Two Line Element Set (TLE):
1 31773U 99025CFY 19170.31772476  .00000451  00000-0  16248-3 0  9995
2 31773  99.0080   3.6958 0073303  44.5302 316.1742 14.37260027629951
Source of the keplerian elements: AFSPC